When you browse on this site, cookies collect data to enhance your experience and personalize the content and advertising you see.
Visit our Privacy Policy to learn more. By continuing to use the site, you agree to this use of cookies and data.
  • en Suisse
  • Liste des pays
  • À 7 jours
  • Température de l'eau
  • Carte météo
  • Widgets météo
  • user-avatar
    Se connecter

    Météo par heure à Cumaná

    Ce jour, 22 Octobre, Mardi

    Heure Température Précipitation Vent Pression Humidité
    00:00 +25°C° 0 mm 2 m/s 750 mmHg 96%
    01:00 +25°C° 0 mm 2 m/s 750 mmHg 95%
    02:00 +25°C° 0 mm 2 m/s 750 mmHg 95%
    03:00 +25°C° 0 mm 2 m/s 750 mmHg 94%
    04:00 +25°C° 0 mm 2 m/s 750 mmHg 93%
    05:00 +24°C° 0 mm 2 m/s 750 mmHg 92%
    06:00 +26°C° 0.1 mm 1 m/s 750 mmHg 88%
    07:00 +27°C° 0.1 mm 1 m/s 751 mmHg 84%
    08:00 +28°C° 0.1 mm 1 m/s 751 mmHg 81%
    09:00 +30°C° 0 mm 1 m/s 751 mmHg 73%
    10:00 +32°C° 0 mm 1 m/s 751 mmHg 64%
    11:00 +34°C° 0 mm 2 m/s 751 mmHg 56%
    12:00 +32°C° 0.4 mm 2 m/s 750 mmHg 65%
    13:00 +31°C° 0.4 mm 2 m/s 750 mmHg 75%
    14:00 +30°C° 0.4 mm 2 m/s 749 mmHg 84%
    15:00 +30°C° 0.8 mm 2 m/s 749 mmHg 87%
    16:00 +29°C° 0.8 mm 2 m/s 749 mmHg 90%
    17:00 +28°C° 0.8 mm 2 m/s 748 mmHg 93%
    18:00 +27°C° 0.2 mm 2 m/s 749 mmHg 95%
    19:00 +27°C° 0.2 mm 3 m/s 749 mmHg 96%
    20:00 +26°C° 0.2 mm 3 m/s 750 mmHg 97%
    21:00 +26°C° 0 mm 3 m/s 750 mmHg 96%
    22:00 +25°C° 0 mm 3 m/s 750 mmHg 94%
    23:00 +25°C° 0 mm 3 m/s 750 mmHg 93%

    Demain, 23 Octobre, Mercredi

    Heure Température Précipitation Vent Pression Humidité
    00:00 +25°C° 0.1 mm 3 m/s 749 mmHg 92%
    01:00 +25°C° 0.1 mm 3 m/s 749 mmHg 92%
    02:00 +25°C° 0.1 mm 3 m/s 749 mmHg 91%
    03:00 +25°C° 0 mm 3 m/s 749 mmHg 90%
    04:00 +24°C° 0 mm 2 m/s 749 mmHg 90%
    05:00 +24°C° 0 mm 2 m/s 749 mmHg 89%
    06:00 +26°C° 0 mm 2 m/s 749 mmHg 86%
    07:00 +27°C° 0 mm 2 m/s 750 mmHg 82%
    08:00 +29°C° 0 mm 1 m/s 750 mmHg 79%
    09:00 +30°C° 0 mm 1 m/s 751 mmHg 73%
    10:00 +32°C° 0 mm 2 m/s 751 mmHg 67%
    11:00 +34°C° 0 mm 2 m/s 751 mmHg 61%
    12:00 +32°C° 0.5 mm 2 m/s 750 mmHg 69%
    13:00 +31°C° 0.5 mm 2 m/s 749 mmHg 77%
    14:00 +31°C° 0.5 mm 2 m/s 748 mmHg 85%
    15:00 +30°C° 0.4 mm 2 m/s 748 mmHg 88%
    16:00 +29°C° 0.4 mm 1 m/s 748 mmHg 91%
    17:00 +29°C° 0.4 mm 1 m/s 749 mmHg 93%
    18:00 +28°C° 0.2 mm 2 m/s 749 mmHg 94%
    19:00 +27°C° 0.2 mm 2 m/s 749 mmHg 95%
    20:00 +26°C° 0.2 mm 3 m/s 750 mmHg 96%
    21:00 +26°C° 0 mm 3 m/s 750 mmHg 95%
    22:00 +26°C° 0 mm 3 m/s 750 mmHg 94%
    23:00 +26°C° 0 mm 3 m/s 750 mmHg 93%

    Après-demain, 24 Octobre, Jeudi

    Heure Température Précipitation Vent Pression Humidité
    00:00 +26°C° 0.1 mm 3 m/s 750 mmHg 93%
    01:00 +25°C° 0.1 mm 3 m/s 750 mmHg 92%
    02:00 +25°C° 0.1 mm 3 m/s 749 mmHg 91%
    03:00 +25°C° 0 mm 2 m/s 749 mmHg 91%
    04:00 +25°C° 0 mm 2 m/s 749 mmHg 90%
    05:00 +25°C° 0 mm 2 m/s 749 mmHg 89%
    06:00 +26°C° 0 mm 2 m/s 750 mmHg 86%
    07:00 +28°C° 0 mm 1 m/s 750 mmHg 83%
    08:00 +29°C° 0 mm 1 m/s 751 mmHg 79%
    09:00 +31°C° 0 mm 1 m/s 751 mmHg 72%
    10:00 +32°C° 0 mm 1 m/s 751 mmHg 65%
    11:00 +35°C° 0 mm 2 m/s 751 mmHg 58%
    12:00 +34°C° 0.3 mm 2 m/s 750 mmHg 66%
    13:00 +32°C° 0.3 mm 2 m/s 749 mmHg 74%
    14:00 +32°C° 0.3 mm 2 m/s 748 mmHg 82%
    15:00 +31°C° 0.2 mm 2 m/s 749 mmHg 85%
    16:00 +30°C° 0.2 mm 3 m/s 749 mmHg 89%
    17:00 +29°C° 0.2 mm 3 m/s 749 mmHg 93%
    18:00 +29°C° 0.3 mm 4 m/s 749 mmHg 94%
    19:00 +28°C° 0.3 mm 4 m/s 749 mmHg 96%
    20:00 +27°C° 0.3 mm 4 m/s 750 mmHg 98%
    21:00 +27°C° 0.2 mm 5 m/s 750 mmHg 97%
    22:00 +27°C° 0.2 mm 5 m/s 750 mmHg 96%
    23:00 +26°C° 0.2 mm 5 m/s 750 mmHg 95%

    25 Octobre, Vendredi

    Heure Température Précipitation Vent Pression Humidité
    00:00 +26°C° 0 mm 4 m/s 750 mmHg 94%
    01:00 +26°C° 0 mm 4 m/s 749 mmHg 93%
    02:00 +26°C° 0 mm 4 m/s 749 mmHg 92%
    03:00 +26°C° 0 mm 3 m/s 749 mmHg 92%
    04:00 +26°C° 0 mm 3 m/s 749 mmHg 91%
    05:00 +25°C° 0 mm 3 m/s 749 mmHg 90%
    06:00 +27°C° 0 mm 3 m/s 750 mmHg 88%
    07:00 +28°C° 0 mm 2 m/s 751 mmHg 85%
    08:00 +29°C° 0 mm 2 m/s 751 mmHg 82%
    09:00 +31°C° 0 mm 2 m/s 751 mmHg 76%
    10:00 +32°C° 0 mm 2 m/s 751 mmHg 70%
    11:00 +34°C° 0 mm 3 m/s 751 mmHg 64%
    12:00 +33°C° 0.3 mm 3 m/s 751 mmHg 72%
    13:00 +33°C° 0.3 mm 3 m/s 750 mmHg 79%
    14:00 +31°C° 0.3 mm 3 m/s 749 mmHg 87%
    15:00 +30°C° 0.9 mm 3 m/s 749 mmHg 90%
    16:00 +29°C° 0.9 mm 3 m/s 749 mmHg 93%
    17:00 +29°C° 0.9 mm 4 m/s 749 mmHg 96%
    18:00 +28°C° 0.3 mm 4 m/s 749 mmHg 96%
    19:00 +27°C° 0.3 mm 4 m/s 750 mmHg 96%
    20:00 +27°C° 0.3 mm 4 m/s 750 mmHg 96%
    21:00 +26°C° 0 mm 4 m/s 750 mmHg 95%
    22:00 +26°C° 0 mm 4 m/s 750 mmHg 94%
    23:00 +26°C° 0 mm 4 m/s 750 mmHg 93%

    26 Octobre, Samedi

    Heure Température Précipitation Vent Pression Humidité
    00:00 +25°C° 0 mm 4 m/s 750 mmHg 92%
    01:00 +25°C° 0 mm 3 m/s 750 mmHg 91%
    02:00 +25°C° 0 mm 3 m/s 749 mmHg 90%
    03:00 +25°C° 0 mm 3 m/s 749 mmHg 89%
    04:00 +25°C° 0 mm 3 m/s 749 mmHg 88%
    05:00 +25°C° 0 mm 3 m/s 749 mmHg 88%
    06:00 +26°C° 0 mm 3 m/s 750 mmHg 84%
    07:00 +28°C° 0 mm 2 m/s 751 mmHg 81%
    08:00 +29°C° 0 mm 2 m/s 751 mmHg 78%
    09:00 +31°C° 0 mm 2 m/s 751 mmHg 72%
    10:00 +32°C° 0 mm 2 m/s 751 mmHg 66%
    11:00 +35°C° 0 mm 2 m/s 751 mmHg 60%
    12:00 +34°C° 0.2 mm 2 m/s 751 mmHg 67%
    13:00 +32°C° 0.2 mm 2 m/s 750 mmHg 74%
    14:00 +32°C° 0.2 mm 2 m/s 749 mmHg 80%
    15:00 +31°C° 0.7 mm 2 m/s 749 mmHg 85%
    16:00 +30°C° 0.7 mm 3 m/s 749 mmHg 89%
    17:00 +29°C° 0.7 mm 3 m/s 749 mmHg 94%
    18:00 +28°C° 0.8 mm 3 m/s 750 mmHg 95%
    19:00 +27°C° 0.8 mm 3 m/s 750 mmHg 95%
    20:00 +26°C° 0.8 mm 4 m/s 750 mmHg 96%
    21:00 +26°C° 0.1 mm 4 m/s 751 mmHg 95%
    22:00 +26°C° 0.1 mm 4 m/s 751 mmHg 93%
    23:00 +26°C° 0.1 mm 4 m/s 751 mmHg 92%

    27 Octobre, Dimanche

    Heure Température Précipitation Vent Pression Humidité
    00:00 +25°C° 0 mm 4 m/s 750 mmHg 91%
    01:00 +25°C° 0 mm 4 m/s 750 mmHg 91%
    02:00 +25°C° 0 mm 4 m/s 750 mmHg 90%
    03:00 +25°C° 0 mm 3 m/s 750 mmHg 89%
    04:00 +25°C° 0 mm 3 m/s 750 mmHg 88%
    05:00 +25°C° 0 mm 2 m/s 749 mmHg 87%
    06:00 +26°C° 0 mm 2 m/s 750 mmHg 83%
    07:00 +28°C° 0 mm 2 m/s 751 mmHg 80%
    08:00 +29°C° 0 mm 2 m/s 751 mmHg 76%
    09:00 +31°C° 0 mm 2 m/s 751 mmHg 72%
    10:00 +32°C° 0 mm 1 m/s 751 mmHg 68%
    11:00 +33°C° 0 mm 1 m/s 751 mmHg 63%
    12:00 +34°C° 0.2 mm 2 m/s 750 mmHg 70%
    13:00 +32°C° 0.2 mm 2 m/s 750 mmHg 77%
    14:00 +31°C° 0.2 mm 2 m/s 749 mmHg 85%
    15:00 +30°C° 0.4 mm 3 m/s 749 mmHg 88%
    16:00 +30°C° 0.4 mm 3 m/s 749 mmHg 91%
    17:00 +29°C° 0.4 mm 3 m/s 748 mmHg 95%
    18:00 +28°C° 0.1 mm 4 m/s 749 mmHg 95%
    19:00 +27°C° 0.1 mm 4 m/s 750 mmHg 96%
    20:00 +27°C° 0.1 mm 4 m/s 750 mmHg 96%
    21:00 +26°C° 0 mm 4 m/s 750 mmHg 95%
    22:00 +26°C° 0 mm 3 m/s 750 mmHg 93%
    23:00 +25°C° 0 mm 3 m/s 750 mmHg 92%

    28 Octobre, Lundi

    Heure Température Précipitation Vent Pression Humidité
    00:00 +25°C° 0 mm 3 m/s 750 mmHg 90%
    01:00 +25°C° 0 mm 3 m/s 750 mmHg 89%
    02:00 +24°C° 0 mm 3 m/s 750 mmHg 87%
    03:00 +24°C° 0 mm 3 m/s 750 mmHg 84%
    04:00 +24°C° 0 mm 3 m/s 750 mmHg 82%
    05:00 +24°C° 0 mm 3 m/s 749 mmHg 79%
    06:00 +26°C° 0 mm 3 m/s 750 mmHg 77%
    07:00 +28°C° 0 mm 2 m/s 751 mmHg 75%
    08:00 +29°C° 0 mm 2 m/s 751 mmHg 72%
    09:00 +31°C° 0 mm 2 m/s 751 mmHg 68%
    10:00 +32°C° 0 mm 2 m/s 751 mmHg 64%
    11:00 +34°C° 0 mm 1 m/s 751 mmHg 59%
    12:00 +34°C° 0.3 mm 2 m/s 750 mmHg 66%
    13:00 +32°C° 0.3 mm 2 m/s 750 mmHg 73%
    14:00 +32°C° 0.3 mm 2 m/s 749 mmHg 79%
    15:00 +31°C° 0.5 mm 2 m/s 749 mmHg 83%
    16:00 +30°C° 0.5 mm 3 m/s 748 mmHg 88%
    17:00 +29°C° 0.5 mm 4 m/s 748 mmHg 92%
    18:00 +28°C° 0.6 mm 4 m/s 749 mmHg 93%
    19:00 +28°C° 0.6 mm 4 m/s 749 mmHg 95%
    20:00 +27°C° 0.6 mm 4 m/s 750 mmHg 96%
    21:00 +26°C° 0 mm 4 m/s 750 mmHg 95%
    22:00 +26°C° 0 mm 4 m/s 750 mmHg 93%
    23:00 +26°C° 0 mm 4 m/s 750 mmHg 92%
    Voir plus